TimeEDT,TemperatureF,Dew PointF,Humidity,Sea Level PressureIn,VisibilityMPH,Wind Direction,Wind SpeedMPH,Gust SpeedMPH,PrecipitationIn,Events,Conditions,WindDirDegrees,DateUTC
12:53 AM,70.0,64.0,81,30.11,8.0,East,3.5,-,N/A,,Mostly Cloudy,90,2013-06-23 04:53:00
1:53 AM,66.9,63.0,87,30.09,7.0,Calm,Calm,-,N/A,,Partly Cloudy,0,2013-06-23 05:53:00
2:53 AM,66.9,63.0,87,30.09,7.0,Calm,Calm,-,N/A,,Clear,0,2013-06-23 06:53:00
3:53 AM,64.9,62.1,90,30.09,8.0,Calm,Calm,-,N/A,,Clear,0,2013-06-23 07:53:00
4:53 AM,64.9,61.0,87,30.09,9.0,Calm,Calm,-,N/A,,Clear,0,2013-06-23 08:53:00
5:53 AM,64.9,62.1,90,30.11,6.0,Calm,Calm,-,N/A,,Clear,0,2013-06-23 09:53:00
6:53 AM,69.1,63.0,81,30.12,10.0,Calm,Calm,-,N/A,,Clear,0,2013-06-23 10:53:00
7:53 AM,73.9,64.9,73,30.12,10.0,Calm,Calm,-,N/A,,Clear,0,2013-06-23 11:53:00
8:53 AM,79.0,66.0,64,30.11,10.0,WSW,4.6,-,N/A,,Clear,250,2013-06-23 12:53:00
9:53 AM,84.0,66.9,56,30.09,10.0,SW,8.1,-,N/A,,Clear,230,2013-06-23 13:53:00
10:53 AM,87.1,66.9,51,30.09,10.0,SW,11.5,-,N/A,,Clear,220,2013-06-23 14:53:00
11:53 AM,89.1,66.0,46,30.07,10.0,SW,10.4,-,N/A,,Partly Cloudy,220,2013-06-23 15:53:00
12:53 PM,89.1,64.0,43,30.06,10.0,South,11.5,20.7,N/A,,Scattered Clouds,180,2013-06-23 16:53:00
1:53 PM,91.0,63.0,39,30.04,10.0,SSW,10.4,18.4,N/A,,Partly Cloudy,210,2013-06-23 17:53:00
2:53 PM,93.0,61.0,34,30.02,10.0,SW,15.0,-,N/A,,Partly Cloudy,220,2013-06-23 18:53:00
3:53 PM,93.0,61.0,34,30.00,10.0,WSW,11.5,-,N/A,,Partly Cloudy,240,2013-06-23 19:53:00
4:53 PM,90.0,61.0,38,30.00,10.0,SW,9.2,-,N/A,,Mostly Cloudy,220,2013-06-23 20:53:00
5:33 PM,82.4,66.2,58,30.04,10.0,NE,13.8,19.6,N/A,,Overcast,50,2013-06-23 21:33:00
5:53 PM,81.0,66.0,60,30.04,10.0,ENE,10.4,-,N/A,,Mostly Cloudy,60,2013-06-23 21:53:00
6:07 PM,78.8,66.2,65,30.05,10.0,ENE,10.4,-,N/A,Thunderstorm,Scattered Clouds,60,2013-06-23 22:07:00
6:43 PM,77.0,64.4,65,30.05,10.0,Calm,Calm,-,N/A,,Mostly Cloudy,0,2013-06-23 22:43:00
6:53 PM,73.9,64.9,73,30.04,2.0,WNW,5.8,-,0.06,Rain-Thunderstorm,Thunderstorms and Rain,300,2013-06-23 22:53:00
7:00 PM,71.6,64.4,78,30.05,1.0,NNW,11.5,18.4,0.11,Rain-Thunderstorm,Heavy Thunderstorms and Rain,340,2013-06-23 23:00:00
7:03 PM,71.6,64.4,78,30.05,0.8,North,8.1,18.4,0.16,Rain,Heavy Rain,10,2013-06-23 23:03:00
7:12 PM,73.4,64.4,73,30.03,1.2,NNE,5.8,-,0.29,Rain,Heavy Rain,30,2013-06-23 23:12:00
7:16 PM,73.4,66.2,78,30.03,3.0,ENE,8.1,-,0.30,Rain,Light Rain,70,2013-06-23 23:16:00
7:44 PM,73.4,66.2,78,30.06,10.0,SE,4.6,-,0.30,Thunderstorm,Thunderstorm,140,2013-06-23 23:44:00
7:53 PM,73.9,66.9,79,30.04,10.0,East,4.6,-,0.30,Rain-Thunderstorm,Light Thunderstorms and Rain,90,2013-06-23 23:53:00
8:48 PM,71.6,68.0,88,30.08,1.8,Calm,Calm,-,0.04,Rain-Thunderstorm,Heavy Thunderstorms and Rain,0,2013-06-24 00:48:00
8:53 PM,72.0,68.0,87,30.06,1.8,Calm,Calm,-,0.05,Rain-Thunderstorm,Light Rain,0,2013-06-24 00:53:00
8:56 PM,71.6,68.0,88,30.08,4.0,Calm,Calm,-,0.00,Rain-Thunderstorm,Light Rain,0,2013-06-24 00:56:00
9:10 PM,71.6,68.0,88,30.07,7.0,North,5.8,-,0.01,Rain-Thunderstorm,Light Rain,10,2013-06-24 01:10:00
9:31 PM,71.6,68.0,88,30.08,6.0,Calm,Calm,-,0.01,Rain,Light Rain,0,2013-06-24 01:31:00
9:53 PM,72.0,69.1,91,30.07,6.0,WSW,4.6,-,0.01,,Overcast,240,2013-06-24 01:53:00
10:53 PM,71.1,66.9,87,30.08,10.0,Calm,Calm,-,0.01,Rain,Light Rain,0,2013-06-24 02:53:00
11:53 PM,70.0,66.9,90,30.08,6.0,Calm,Calm,-,0.00,,Partly Cloudy,0,2013-06-24 03:53:00